{"data":{"norad_id":65949,"intl_designator":"2025-228C","name":"KUIPER-00117","alt_names":[],"object_type":"PAYLOAD","status":"ACTIVE","operator":null,"country":"US","launch_date":"2025-10-14","launch_site_code":"AFETR","launch_vehicle":null,"mission":null,"orbit_class":"UNKNOWN","rcs_meters":null,"size_class":null,"mass_kg":null,"dimensions":null,"purposes":[],"wikipedia_slug":null,"has_3d_model":false,"image_url":null,"decayed_at":null,"tle_current":{"epoch":"2026-05-24T22:32:29.794272Z","epoch_age_seconds":70475,"freshness":"FRESH","line1":"1 65949U 25228C   26144.93923373  .00003347  00000+0  46782-3 0  9994","line2":"2 65949  51.8990  20.9071 0000809 103.9474 256.1578 14.79938127 34553","mean_motion":14.79938127,"eccentricity":8.09e-5,"inclination_deg":51.899,"raan_deg":20.9071,"arg_perigee_deg":103.9474,"mean_anomaly_deg":256.1578,"bstar":0.00046782,"rev_number":3455,"period_min":97.301365086055,"perigee_km":628.95252514683,"apogee_km":630.08636395956,"semimajor_km":7007.6564445532,"source":"CELESTRAK","updated_at":"2026-05-25T13:38:05.844584Z"}}}